Regional Weather Roundup
Issued by NWS

Home | Current Version | Previous Version | Text Only | Print | Product List | Glossary On
Versions: 1 2 3 4 5 6 7 8 9 10 11 12 13 14 15 16 17 18 19 20 21 22 23 24 25 26 27 28 29 30 31 32 33 34 35 36 37 38 39 40 41 42 43 44 45 46 47 48 49 50
425
ASUS43 KOAX 290110
RWRNE

WEATHER ROUNDUP FOR NEBRASKA
NATIONAL WEATHER SERVICE OMAHA NE
800 PM CDT WED SEP 28 2016

NOTES: SATELLITE DATA IS BEING USED TO AUGMENT CLOUD COVER ABOVE
       12000 FEET.
       "FAIR" INDICATES FEW OR NO CLOUDS BELOW 12,000 FEET WITH NO
       SIGNIFICANT WEATHER AND/OR OBSTRUCTIONS TO VISIBILITY.

  * THESE STATIONS DO NOT REPORT WEATHER SUCH AS RAIN...SNOW OR FOG.

NEZ001>004-019>022-054>056-290200-
NEBRASKA PANHANDLE

CITY           SKY/WX    TMP DP  RH WIND       PRES   REMARKS
SCOTTSBLUFF    CLEAR     65  46  50 E5        30.28R
ALLIANCE       CLEAR     65  43  44 E9        30.28R
CHADRON        CLEAR     69  44  40 NE8       30.26R
KIMBALL        CLEAR     62  40  43 E7        30.33S HAZE
SIDNEY         CLEAR     64  37  36 E9        30.32R
$$

NEZ057>060-069>072-079>082-290200-
SOUTHWEST NEBRASKA

CITY           SKY/WX    TMP DP  RH WIND       PRES   REMARKS
NORTH PLATTE   CLEAR     60  35  39 NE8       30.28R
IMPERIAL       CLEAR     65  39  38 E9        30.28R
LEXINGTON      CLEAR     56  41  56 E8        30.28R
MCCOOK         CLEAR     63  40  42 E9        30.26R
OGALLALA       CLEAR     68  41  37 E7        30.28R
$$

NEZ005>010-023>029-035>040-094-290200-
NORTH CENTRAL NEBRASKA

CITY           SKY/WX    TMP DP  RH WIND       PRES   REMARKS
VALENTINE      CLEAR     57  35  43 E8        30.31R
AINSWORTH      CLEAR     56  47  72 E6        30.31R
BROKEN BOW     CLEAR     58  45  62 NE6       30.29R
O`NEILL        CLEAR     56  43  62 E3        30.32R
ORD            CLEAR     58  41  53 NE7       30.28R
THEDFORD       CLEAR     59  32  36 E3        30.31R
$$

NEZ041-046>049-061>064-073>077-083>087-290200-
SOUTH CENTRAL NEBRASKA

CITY           SKY/WX    TMP DP  RH WIND       PRES   REMARKS
GRAND ISLAND   CLEAR     54  43  66 NE8       30.28R
AURORA         CLEAR     54  44  67 NE6       30.28R
HASTINGS       CLEAR     58  42  55 NE5       30.28R
HEBRON         CLEAR     58  43  57 NE5       30.26R
HOLDREGE       CLEAR     58  43  56 NE8       30.28R
KEARNEY *      CLEAR     57  39  51 NE7       30.27R
YORK           CLEAR     55  45  67 NE7       30.28R
$$

NEZ011>018-030>034-042>045-290200-
NORTHEAST NEBRASKA

CITY           SKY/WX    TMP DP  RH WIND       PRES   REMARKS
NORFOLK        CLEAR     57  43  59 NE6       30.29R
ALBION         CLEAR     54  43  67 N5        30.30R
BLAIR          CLEAR     56  47  71 N6        30.27S
FREMONT        CLEAR     57  45  64 NE7       30.29R
TEKAMAH        CLEAR     51  46  83 NW8       30.28S
WAYNE          CLEAR     54  46  76 NE6       30.31R
$$

NEZ050>053-065>068-078-088>093-290200-
SOUTHEAST NEBRASKA

CITY           SKY/WX    TMP DP  RH WIND       PRES   REMARKS
LINCOLN        CLEAR     57  46  66 NE9       30.29R
OMAHA EPPLEY   PTCLDY    55  47  74 N6        30.27R
BEATRICE       CLEAR     58  45  62 NE6       30.27R
FALLS CITY     CLEAR     57  48  72 NW6       30.23R
NEBRASKA CITY  CLEAR     56  42  58 N5        30.26S
PLATTSMOUTH    CLEAR     56  44  64 N3        30.26S
$$

NEZ044-045-051>053-067-290200-
OMAHA AREA

CITY           SKY/WX    TMP DP  RH WIND       PRES   REMARKS
OMAHA EPPLEY   PTCLDY    55  47  74 N6        30.27R
BLAIR          CLEAR     56  47  71 N6        30.27S
FREMONT        CLEAR     57  45  64 NE7       30.29R
MILLARD        CLEAR     60  47  61 CALM      30.27R
OFFUTT AFB     CLEAR     56  47  71 N6        30.26R
PLATTSMOUTH    CLEAR     56  44  64 N3        30.26S
WAHOO          FAIR      54  46  76 NE7       30.28R
$$




USA.gov is the U.S. government's official web portal to all federal, state and local government web resources and services.